Location: Saratoga Springs
(43.0831°N, 73.7850°W)
Time: 02:46:48
(UTC-04:00)

Vanguard 2 Rocket - Pass Details

Date: 18 April 2024
Orbit: 556 x 3304 km, 32.9° (Epoch: 17 May)

Event Time Altitude Azimuth Distance (km) Brightness Sun altitude
Rises 05:30:54 0° 279° (W) 7,116 10.9 -7.1°
Reaches altitude 10° 05:37:24 10° 268° (W) 5,797 10.4 -6.0°
Maximum altitude 05:48:55 23° 225° (SW) 3,964 9.6 -4.1°
Drops below altitude 10° 05:57:22 10° 179° (S) 4,104 10.1 -2.6°
Sets 06:00:59 0° 164° (SSE) 4,679 10.5 -2.0°
